Regional Weather Roundup
Issued by NWS Sioux Falls, SD

Home | Current Version | Previous Version | Graphics & Text | Print | Product List | Glossary Off
Versions: 1 2 3 4 5 6 7 8 9 10 11 12 13 14 15 16 17 18 19 20 21 22 23 24 25 26 27 28 29 30 31 32 33 34 35 36 37 38 39 40 41 42 43 44 45 46 47 48 49 50

000
ASUS43 KFSD 280302
RWRFSD

WEATHER ROUNDUP FOR SE SOUTH DAKOTA/SW MINNESOTA/NW IOWA
NATIONAL WEATHER SERVICE SIOUX FALLS SD
900 PM CST MON FEB 27 2017

NOTE: "FAIR" INDICATES FEW OR NO CLOUDS BELOW 12,000 FEET WITH NO
SIGNIFICANT WEATHER AND OR OBSTRUCTIONS TO VISIBILITY.


SDZ038>040-050-052>070-280400-
SOUTHEAST SOUTH DAKOTA

CITY           SKY/WX    TMP DP  RH WIND       PRES   REMARKS
BROOKINGS      MOCLDY    37  28  70 SE13      29.74S
CHAMBERLAIN    CLOUDY    36  30  79 NE3       29.70R
HURON          CLEAR     32  27  81 SE7       29.72S WCI  26
MADISON        CLOUDY    34  32  93 SE7       29.74S WCI  28
MITCHELL       CLEAR     34  29  82 SE9       29.71F WCI  27
SIOUX FALLS    CLOUDY    37  32  82 E7        29.75F
WINNER         CLOUDY    36  30  79 S5        29.68R
YANKTON        CLEAR     36  28  75 E8        29.72F
$$

MNZ071-072-080-081-089-090-097-098-280400-
SOUTHWEST MINNESOTA

CITY           SKY/WX    TMP DP  RH WIND       PRES   REMARKS
FAIRMONT       CLOUDY    37  32  82 SE12      29.82S
JACKSON        CLOUDY    34  32  93 E6        29.80S WCI  29
LUVERNE        CLOUDY    34  30  86 E6        29.77F WCI  29
MARSHALL       CLOUDY    38  30  73 S12       29.79S
MONTEVIDEO     CLOUDY    37  28  70 S5        29.82R
PIPESTONE      CLOUDY    36  28  75 SE9       29.75F
REDWOOD FALLS  CLOUDY    35  27  72 SE10      29.83R WCI  27
TRACY          CLOUDY    36  31  84 S8        29.79F
WINDOM         CLOUDY    36  30  80 CALM      29.80F
WORTHINGTON    CLOUDY    34  31  88 E6        29.79S WCI  29
$$

IAZ001>003-012>014-020>022-031-032-NEZ013-014-SDZ071-280400-
NORTHWEST IOWA

CITY           SKY/WX    TMP DP  RH WIND       PRES   REMARKS
CHEROKEE       CLOUDY    39  32  76 SE6       29.77F
DENISON        MOCLDY    43  30  61 SE14G20   29.73F
ESTHERVILLE    CLOUDY    35  32  88 SE10      29.80S WCI  27
LE MARS        CLOUDY    41  32  70 SE9       29.76S
SHELDON        CLOUDY    39  36  87 SE15      29.76S
SIOUX CITY     CLOUDY    40  31  70 E6        29.74F
SPENCER        CLOUDY    37  32  82 E7        29.80S
STORM LAKE     CLOUDY    39  30  70 SE8G14    29.77F
$$

ABBREVIATIONS USED IN REMARKS
   TC - TEMPERATURE IN CELSIUS
  WCI - WIND CHILL INDEX
   HX - HEAT INDEX
  VSB - VISIBILITY





USA.gov is the U.S. government's official web portal to all federal, state and local government web resources and services.